This demonstration page uses our WeatherBlox Daily Observations layout. Learn more.

Left ArrowRight Arrow

53.62937, 11.41316

Hourly Observations for July 11, 2022

Temp ( °F °C ) Dew Point ( °F °C ) Humidity (%) Winds ( mph kmh ) Pressure ( in mb ) Visibility ( mi km ) Precip ( " mm )
12:20 am 00:20 Mostly Clear 54 12 48 9 82 82 W 5 7 30.15 1021 30 48 N/A
12:50 am 00:50 Mostly Clear 52 11 46 8 82 82 WSW 3 6 30.15 1021 30 48 N/A
1:20 am 01:20 Mostly Clear 52 11 48 9 88 88 W 5 7 30.15 1021 30 48 N/A
1:50 am 01:50 Mostly Clear 52 11 48 9 88 88 W 5 7 30.15 1021 30 48 N/A
2:20 am 02:20 Mostly Clear 50 10 46 8 88 88 W 3 6 30.15 1021 30 48 N/A
2:50 am 02:50 Mostly Clear 50 10 46 8 88 88 W 5 7 30.15 1021 30 48 N/A
3:20 am 03:20 Mostly Clear 48 9 46 8 94 94 W 3 6 30.12 1020 30 48 N/A
3:50 am 03:50 Mostly Clear 48 9 46 8 94 94 W 5 7 30.12 1020 30 48 N/A
4:20 am 04:20 Mostly Clear 48 9 46 8 94 94 W 3 6 30.15 1021 30 48 N/A
4:50 am 04:50 Mostly Clear 48 9 46 8 94 94 VRB 2 4 30.15 1021 6 9 N/A
5:20 am 05:20 Mostly Sunny 48 9 46 8 94 94 W 5 7 30.15 1021 30 48 N/A
5:50 am 05:50 Mostly Sunny 48 9 48 9 100 100 W 5 7 30.15 1021 30 48 N/A
6:20 am 06:20 Mostly Sunny 50 10 48 9 94 94 W 5 7 30.15 1021 7 11 N/A
6:50 am 06:50 Mostly Sunny 52 11 50 10 94 94 WNW 5 7 30.15 1021 7 11 N/A
7:20 am 07:20 Mostly Sunny 54 12 50 10 88 88 WNW 5 7 30.15 1021 7 11 N/A
7:50 am 07:50 Mostly Sunny 55 13 52 11 88 88 NW 5 7 30.15 1021 7 11 N/A
8:20 am 08:20 Mostly Sunny 57 14 52 11 82 82 WNW 7 11 30.15 1021 30 48 N/A
8:50 am 08:50 Mostly Sunny 59 15 50 10 72 72 NW 7 11 30.15 1021 30 48 N/A
9:20 am 09:20 Mostly Sunny 61 16 50 10 68 68 NW 6 9 30.15 1021 30 48 N/A
9:50 am 09:50 Mostly Sunny 63 17 50 10 64 64 NNW 7 11 30.15 1021 30 48 N/A
10:20 am 10:20 Mostly Sunny 64 18 50 10 60 60 W 7 11 30.15 1021 30 48 N/A
10:50 am 10:50 Mostly Sunny 64 18 48 9 56 56 VRB 6 9 30.15 1021 30 48 N/A
11:20 am 11:20 Mostly Sunny 66 19 48 9 52 52 NNW 6 9 30.15 1021 30 48 N/A
11:50 am 11:50 Mostly Sunny 68 20 46 8 46 46 VRB 6 9 30.15 1021 30 48 N/A
12:20 pm 12:20 Mostly Sunny 68 20 46 8 46 46 NNW 6 9 30.15 1021 30 48 N/A
12:50 pm 12:50 Mostly Sunny 70 21 48 9 46 46 VRB 6 9 30.15 1021 30 48 N/A
1:20 pm 13:20 Mostly Sunny 68 20 43 6 40 40 WNW 7 11 30.15 1021 30 48 N/A
1:50 pm 13:50 Mostly Sunny 72 22 48 9 44 44 NW 8 13 30.15 1021 7 11 N/A
2:20 pm 14:20 Mostly Sunny 70 21 45 7 40 40 VRB 7 11 30.15 1021 7 11 N/A
2:50 pm 14:50 Mostly Sunny 70 21 46 8 43 43 NW 8 13 30.15 1021 7 11 N/A
3:20 pm 15:20 Mostly Sunny 72 22 46 8 41 41 VRB 7 11 30.15 1021 7 11 N/A
3:50 pm 15:50 Mostly Sunny 72 22 46 8 41 41 NNW 8 13 30.15 1021 7 11 N/A
4:20 pm 16:20 Mostly Sunny 72 22 46 8 41 41 NNW 6 9 30.15 1021 7 11 N/A
4:50 pm 16:50 Mostly Sunny 73 23 50 10 44 44 NW 8 13 30.15 1021 7 11 N/A
5:20 pm 17:20 Mostly Sunny 73 23 48 9 41 41 NW 6 9 30.15 1021 7 11 N/A
5:50 pm 17:50 Mostly Sunny 72 22 48 9 44 44 NW 6 9 30.15 1021 7 11 N/A
6:20 pm 18:20 Mostly Sunny 72 22 48 9 44 44 NW 6 9 30.15 1021 7 11 N/A
6:50 pm 18:50 Mostly Sunny 72 22 48 9 44 44 N 6 9 30.15 1021 7 11 N/A
7:20 pm 19:20 Mostly Sunny 72 22 50 10 47 47 NNW 7 11 30.15 1021 7 11 N/A
7:50 pm 19:50 Mostly Sunny 72 22 48 9 44 44 NNW 6 9 30.15 1021 7 11 N/A
8:20 pm 20:20 Mostly Sunny 70 21 48 9 46 46 N 6 9 30.15 1021 7 11 N/A
8:50 pm 20:50 Mostly Sunny 68 20 50 10 53 53 NE 5 7 30.18 1022 7 11 N/A
9:20 pm 21:20 Mostly Sunny 66 19 52 11 60 60 VRB 2 4 30.18 1022 30 48 N/A
9:50 pm 21:50 Mostly Clear 63 17 52 11 68 68 Calm 30.18 1022 30 48 N/A
10:20 pm 22:20 Mostly Clear 63 17 54 12 73 73 W 6 9 30.18 1022 30 48 N/A
10:50 pm 22:50 Mostly Clear 63 17 55 13 77 77 W 5 7 30.18 1022 30 48 N/A
11:20 pm 23:20 Mostly Clear 61 16 55 13 83 83 W 5 7 30.21 1023 30 48 N/A
11:50 pm 23:50 Mostly Clear 59 15 55 13 88 88 W 5 7 30.21 1023 30 48 N/A

Powered by AerisWeather